Portage Invitational 2015

Portage, MI

Portage Invitational 2015 vs Portage Invitational 2014

Aggregate Data Points
Difference This Meet That Meet
Overall Athletes +2372 4315 1943
Overall Average +1:05.59 21:25.07 20:19.48
1st-10th Place -13.17 15:09.23 15:22.40
1st-25th Place -13.88 15:25.72 15:39.60
1st-50th Place -10.16 15:43.04 15:53.20
1st-100th Place -8.22 16:01.54 16:09.76
Common Athletes -- -- 954
Ran Faster 457 707 250
Ran Season Best 174 393 219
Average Time -29.17 19:39.91 20:09.09
Median Time -26.40 19:21.60 19:48.00
Middle 80% Times -28.45 19:27.15 19:55.60
Top 10% Times -27.47 16:07.75 16:35.22
Top 25% Times -30.76 16:41.35 17:12.11
Top 50% Times -32.50 17:30.79 18:03.29
Bottom 50% Times -25.85 21:49.03 22:14.88
Bottom 25% Times -24.64 23:17.71 23:42.34
Bottom 10% Times -36.17 24:58.16 25:34.33
Average Difference -29.26 -- --
Median Difference -6.60 -- --
Middle 80% Difference -28.69 -- --
Top 10% Difference -21.09 -- --
Top 50% Difference -30.07 -- --
Top 25% Difference -27.41 -- --
Top 50% Difference -30.07 -- --
Bottom 50% Difference -28.48 -- --
Bottom 25% Difference -29.92 -- --
Bottom 10% Difference -42.24 -- --

Performances of Common Athletes
Athlete Team Difference This Meet That Meet
Morgan Beadlescomb Algonac -51.30 14:58.70 15:50.00
Isaac Harding Rockford -31.90 15:00.10 15:32.00
Joe Bistritz Chagrin Falls -20.70 15:09.30 15:30.00
Logan Kleam Brownstown Woodhaven -41.30 15:09.70 15:51.00
Anthony Berry Traverse City Central -11.90 15:10.10 15:22.00
Abe Visser Grandville Calvin Christian -42.00 15:13.00 15:55.00
Nick Hirschenberger Traverse City West -1:04.60 15:15.40 16:20.00
Cole Johnson Rockford -22.90 15:18.10 15:41.00
Matthew Zerfas Fremont -1:42.60 15:18.40 17:01.00
James McCann Holland Black River -48.30 15:18.70 16:07.00
Cole Hamilton Fremont -1:02.20 15:25.80 16:28.00
Justin Varineau Grand Rapids Christian -39.00 15:33.00 16:12.00
Fraser Wilson Kent City -33.90 15:34.10 16:08.00
Arik Lafave Hesperia -28.90 15:40.10 16:09.00
Braxton Snuffer Muskegon Western Michigan Christian -56.00 15:41.00 16:37.00
Josh Nickerson Hartland -13.80 15:43.20 15:57.00
Ethan Taljonick Clio -24.50 15:43.50 16:08.00
Bransen Stimpfel Cass City -18.40 15:43.60 16:02.00
Nicholson Jack Grand Haven -38.80 15:44.20 16:23.00
Ben Cracraft Northville -32.50 15:46.50 16:19.00
Jake Williams Benzie Central -1:01.40 15:46.60 16:48.00
Christian Hubaker Grand Ledge -27.90 15:47.10 16:15.00
Jesse Saxton Grant -28.70 15:48.30 16:17.00
Walker Priest Shepherd -8.40 15:48.60 15:57.00
Brian Njuguna Bridgman -32.00 15:49.00 16:21.00
Brayden Huddleston Benzie Central -26.80 15:50.20 16:17.00
Grayson Harding Rockford -36.80 15:51.20 16:28.00
Jack Schafer Adrian -1:12.50 15:55.50 17:08.00
Dylan Sykes Grand Rapids Catholic Central -51.20 15:55.80 16:47.00
Conor Naughton Northville +15.10 16:11.10 15:56.00
Bobby Haskin Grand Rapids West Catholic +17.70 16:14.70 15:57.00
Kory Johnson Brownstown Woodhaven -59.10 15:58.90 16:58.00
James Fedawa Ann Arbor Gabriel Richard -1:19.40 16:01.60 17:21.00
Zachary Pettinga Saugatuck -41.10 16:01.90 16:43.00
Paul Mckinley Okemos -53.40 16:02.60 16:56.00
Kiehl Smith Jonesville -49.00 16:07.00 16:56.00
Elliot Kadrofske Okemos -1:14.60 16:07.40 17:22.00
Ethan Markey Lansing Catholic -31.40 16:07.60 16:39.00
Sam Kaastra Fremont -2.20 16:07.80 16:10.00
Saano Murembya Okemos +55.90 17:03.90 16:08.00
Joey Dawson Richland Gull Lake -19.90 16:09.10 16:29.00
Gannon Foley Portage Central -17.90 16:09.10 16:27.00
Evan Koerschner Saline -12.00 16:10.00 16:22.00
Tim Osborne Brighton -59.90 16:10.10 17:10.00
Grant Gabriel Rockford -13.70 16:10.30 16:24.00
Gary Mcbride Bear Lake -39.30 16:12.70 16:52.00
Nathan Mack Portage Central -1:31.60 16:13.40 17:45.00
Jonathan Voth Grand Blanc -16.90 16:15.10 16:32.00
Eric Poth Marlette -1:00.20 16:15.80 17:16.00
Anthony Wohlfeil Monroe -15.60 16:16.40 16:32.00
Ben Geer Mason -52.30 16:16.70 17:09.00
Matthew Levitt East Grand Rapids +26.20 16:43.20 16:17.00
Cade Vruggink East Grand Rapids -46.20 16:17.80 17:04.00
Kenny Goolsby Northville -8.00 16:18.00 16:26.00
Matt Billette Bay City Western -1:21.90 16:18.10 17:40.00
Noah Dawn Monroe -30.30 16:18.70 16:49.00
Sam Stitt Fremont -39.10 16:18.90 16:58.00
Michael Rose Chagrin Falls -25.60 16:19.40 16:45.00
Evan Vorwerck Bay City Western -59.40 16:19.60 17:19.00
Brennan Burk Hanover-Horton -19.20 16:19.80 16:39.00
Jordan Bennett Caledonia -40.20 16:19.80 17:00.00
Michael Greeley Temperance-Bedford -37.30 16:20.70 16:58.00
Bryan Adamovicz Saline -34.90 16:21.10 16:56.00
Ryan Schroeder Lansing Catholic -50.50 16:21.50 17:12.00
Justin Smith Bangor -21.90 16:22.10 16:44.00
Connor Parrell Brighton -31.30 16:22.70 16:54.00
Matt Ring Schoolcraft -22.50 16:23.50 16:46.00
Connor Schwartz Hudsonville Unity Christian -59.70 16:24.30 17:24.00
Joe Hughes Traverse City West -15.90 16:25.10 16:41.00
Brad Wurzel Berrien Springs -42.80 16:25.20 17:08.00
Brendan Daly Watervliet -7.60 16:25.40 16:33.00
Tyler McCartney Grand Ledge -35.30 16:25.70 17:01.00
Justin Detgen Concord -30.60 16:27.40 16:58.00
Jarek Brower Zeeland West -41.60 16:27.40 17:09.00
Dylan Mosher Clio +22.30 16:50.30 16:28.00
Micah Meindertsma Caledonia -1:12.60 16:28.40 17:41.00
Perry Carter Wayland Union -34.70 16:29.30 17:04.00
Antonio Wenglikowski Bay City Western -35.70 16:29.30 17:05.00
Chase Smith Clio -38.10 16:30.90 17:09.00
Orlando Carrion Saugatuck -49.60 16:31.40 17:21.00
Angelo Leon East Kentwood -37.40 16:31.60 17:09.00
Nick Mcdonald Linden -31.20 16:31.80 17:03.00
Noah Kramer Hartland +18.30 16:50.30 16:32.00
Ben Haupt Clare -21.80 16:33.20 16:55.00
Austin Shepherd Hanover-Horton -18.20 16:33.80 16:52.00
Will Kellam Portage Northern -16.70 16:34.30 16:51.00
Brendan Nesbitt Bay City Western -13.30 16:34.70 16:48.00
Jobe Kerr Watervliet -1:32.80 16:35.20 18:08.00
Tyler Poel Grand Rapids Christian -1:10.70 16:35.30 17:46.00
Hayden Holmes Traverse City West -33.10 16:35.90 17:09.00
Tyler Travis Shepherd +5.50 16:41.50 16:36.00
Robbie Lohr Traverse City West -1:04.50 16:36.50 17:41.00
Les Miner Creative Technical Academy -1:09.40 16:37.60 17:47.00
Tim Kinney Constantine -1:32.10 16:37.90 18:10.00
Will Lage St. Joseph -44.60 16:38.40 17:23.00
Elija Horski Hartland -24.10 16:38.90 17:03.00
Dallas Mora Cedar Springs -1:15.70 16:39.30 17:55.00
Brendan Parr St. Clair -1:19.50 16:39.50 17:59.00
Brendan McClanahan Temperance-Bedford -32.40 16:39.60 17:12.00
Alex Dennis Whitehall -8.20 16:39.80 16:48.00
Noah Robotham Benzie Central +24.00 17:05.00 16:41.00
Kellen Rau Grandville -1:33.80 16:41.20 18:15.00
Joshua Fink Holland Black River -1:41.40 16:41.60 18:23.00
Gregory Lingle Temperance-Bedford -12.20 16:41.80 16:54.00
Kyle Chamberlain Hudsonville +40.90 17:22.90 16:42.00
Kyle Barger Traverse City Central -3.40 16:42.60 16:46.00
Nadji Butris Jackson Lumen Christi +44.00 17:27.00 16:43.00
Parker Depalma New Buffalo -2:04.60 16:43.40 18:48.00
Cameron Thalhammer Spring Lake -50.20 16:43.80 17:34.00
Jeffery Crouch Benzie Central -17.00 16:44.00 17:01.00
Jordan Anderson Bear Lake +2.30 16:46.30 16:44.00
Loren Appold Bay City Western +9.50 16:54.50 16:45.00
Tj Kessman Concord -1:22.00 16:45.00 18:07.00
Brendan Zauel Ann Arbor Pioneer -1:46.90 16:45.10 18:32.00
Brenden Jones Holland Black River -34.50 16:45.50 17:20.00
Miles Kanipe Dexter -49.80 16:46.20 17:36.00
Curtis Jewell Monroe -1:07.80 16:46.20 17:54.00
Eric Wilkewitz Brownstown Woodhaven -40.10 16:46.90 17:27.00
Kurt Egelhaaf St. Joseph -52.80 16:47.20 17:40.00
Kagen Griffith Linden -34.10 16:47.90 17:22.00
Kody Yorton Clio +2.80 16:50.80 16:48.00
Nick Butch Saugatuck +10.10 16:58.10 16:48.00
Chris Franks Clio -3.70 16:48.30 16:52.00
Cade Fleming Van Wert -2.70 16:48.30 16:51.00
Matthew Parran Monroe -42.60 16:48.40 17:31.00
Nolan Meister East Kentwood -4.50 16:49.50 16:54.00
Gabe Ruyon Kalamazoo Loy Norrix -31.20 16:49.80 17:21.00
Dominick Hentemann Grand Haven -43.50 16:50.50 17:34.00
Dylan Lame Hudsonville -30.40 16:50.60 17:21.00
Garett Nelson Clio +0.90 16:51.90 16:51.00
Derek Sanchez Hudsonville -2.20 16:51.80 16:54.00
Jon Koning Portage Central +13.10 17:05.10 16:52.00
Miles Mcdonald Hartland +14.30 17:06.30 16:52.00
Demeatrice Webster East Kentwood -46.90 16:52.10 17:39.00
Zach Abbee Hanover-Horton -23.80 16:52.20 17:16.00
Matt Sowles Coldwater -40.60 16:52.40 17:33.00
Cody Clemens Portage Northern -11.50 16:52.50 17:04.00
Jake Hovda Portage Central -35.20 16:52.80 17:28.00
Leo Vallejo Wyoming Lee -1:47.00 16:53.00 18:40.00
Sam Johnson Hastings -16.00 16:53.00 17:09.00
Jack Gillispie Port Huron Northern -55.60 16:53.40 17:49.00
Cole Trevino Bath -1.20 16:53.80 16:55.00
Liam Heaney Chelsea -19.00 16:54.00 17:13.00
Marc Lopez Dexter -21.00 16:54.00 17:15.00
Joe Glubke Battle Creek Lakeview -2:18.70 16:54.30 19:13.00
Bryce Hegenauer Shepherd -1:29.30 16:54.70 18:24.00
Walker Child St. Clair -25.60 16:55.40 17:21.00
Landon Melling Hanover-Horton -14.50 16:55.50 17:10.00
Lucas Piekarski Spring Lake -47.10 16:55.90 17:43.00
Landon Dysart Capital Homeschool -51.80 16:56.20 17:48.00
Nick Macgeorge East Grand Rapids -27.80 16:56.20 17:24.00
Vincent Popyk Grand Blanc -33.50 16:56.50 17:30.00
Chase Eslick North Muskegon -10.60 16:57.40 17:08.00
Michael Klein Grand Rapids Catholic Central -50.00 16:58.00 17:48.00
Josh Williams St. Clair -56.90 16:58.10 17:55.00
Jordan Pattison Caledonia -10.90 16:58.10 17:09.00
Kole Hanke Bridgman -41.80 16:58.20 17:40.00
Jack Eck Linden -6.80 16:58.20 17:05.00
Trystan Thayer Grand Rapids Forest Hills Central -1:18.80 16:58.20 18:17.00
Lucas Hamilton Richland Gull Lake -49.30 16:58.70 17:48.00
Jimmy Teall Clare -1:24.00 16:59.00 18:23.00
Tyler Champenoy Port Huron Northern +7.60 17:06.60 16:59.00
Austin Yunker Mendon -1:22.80 16:59.20 18:22.00
Matt Schmidt Spring Lake -32.50 16:59.50 17:32.00
Brad Hotovy Allendale -1:04.50 16:59.50 18:04.00
Will Haran Flint Powers Catholic -31.50 16:59.50 17:31.00
Trevor Sepanik Traverse City Central -31.10 16:59.90 17:31.00
Jacob Redlawski St. Clair -1:09.90 17:00.10 18:10.00
Cameron Bitzer Monroe -1:24.90 17:00.10 18:25.00
Jack Shelley Dexter -39.80 17:00.20 17:40.00
Tyler Lewis Vicksburg -41.70 17:00.30 17:42.00
Kaiden Hejl Bear Lake -38.60 17:00.40 17:39.00
Michael Bank Carleton Airport +1.10 17:02.10 17:01.00
Dylan Plummer Mendon -40.80 17:01.20 17:42.00
Elliott Hanke Bridgman -29.40 17:01.60 17:31.00
Easton Schultz East Grand Rapids +32.60 17:34.60 17:02.00
Jeremy Bond Charyl Stockwell Academy -58.80 17:02.20 18:01.00
Cooper Thieme Grand Rapids Forest Hills Eastern -42.10 17:02.90 17:45.00
Jack Milimier Richland Gull Lake -29.80 17:03.20 17:33.00
Collin Higgins St. Clair -44.40 17:03.60 17:48.00
Bryce Arredondo Zeeland West -34.40 17:03.60 17:38.00
Kyle Strong Vicksburg -1:35.00 17:04.00 18:39.00
Dylan Lautzenheiser Van Wert -32.60 17:04.40 17:37.00
Noah Heckenlively Hillsdale Academy -56.00 17:05.00 18:01.00
Shawn Roncka Grandville -42.70 17:05.30 17:48.00
Ethan Grayeb Grand Rapids Forest Hills Northern -43.70 17:05.30 17:49.00
Chase Morse Linden -27.80 17:06.20 17:34.00
Justin Lundstrom Holland Black River -46.60 17:06.40 17:53.00
Michael Uglietta East Grand Rapids +44.80 17:51.80 17:07.00
Jay Waggener Hanover-Horton -47.30 17:07.70 17:55.00
Eric Farhadi Caledonia -38.20 17:07.80 17:46.00
Jordan Diephouse Grand Haven +3.30 17:11.30 17:08.00
Jacob Lyons Richland Gull Lake -22.70 17:08.30 17:31.00
Kyle Venne Hesperia -51.60 17:08.40 18:00.00
Zhane Arthur St. Joseph -42.30 17:08.70 17:51.00
Jake Randall Grandville -58.30 17:08.70 18:07.00
Eldon Garvelink Saugatuck -47.20 17:08.80 17:56.00
Daniel Mikovits Concord -15.00 17:11.00 17:26.00
Alex Herriman Caledonia -41.90 17:11.10 17:53.00
Travis Grube Kalamazoo Loy Norrix -1:16.90 17:11.10 18:28.00
Josh Ball Grand Rapids Forest Hills Central -18.90 17:12.10 17:31.00
Ben DeMass Capital Homeschool -43.70 17:12.30 17:56.00
Jacob Hagenbuch Mendon -51.60 17:12.40 18:04.00
Will Warmoth Spring Lake +14.30 17:27.30 17:13.00
Adam Clemens Coldwater +11.20 17:24.20 17:13.00
Ryan Petty Remus Chippewa Hills -35.90 17:13.10 17:49.00
Karl Hanke Bridgman -17.10 17:13.90 17:31.00
Gabe Lamer Grandville Calvin Christian -31.30 17:14.70 17:46.00
Alex Kean Clio -23.60 17:15.40 17:39.00
Kelton Eldred Blanchard Montabella -37.10 17:15.90 17:53.00
Rachel Bonner Port Huron -48.10 17:15.90 18:04.00
Benjamin Deuling Fremont -36.90 17:16.10 17:53.00
Wayne Matunas Portage Northern -6.70 17:16.30 17:23.00
Kody Smith Potterville -1:36.30 17:16.70 18:53.00
Conor O'Brien Grand Rapids West Catholic -1:01.00 17:18.00 18:19.00
Austin Mathis Remus Chippewa Hills -35.00 17:18.00 17:53.00
Joe Dandron Montague -2:01.70 17:18.30 19:20.00
Zach Dittenbir Traverse City West -5.90 17:19.10 17:25.00
Faruq Schieber Kalamazoo Central -19.90 17:19.10 17:39.00
Roman Mitchell Celina -11.30 17:19.70 17:31.00
Spencer Atkinson Grand Blanc -17.20 17:19.80 17:37.00
Jonathan Zuiderveen Wayland Union -19.90 17:20.10 17:40.00
Ben Carpenter Marcellus -1:48.70 17:20.30 19:09.00
Hunter VanKlompenberg Grandville Calvin Christian -1:11.90 17:21.10 18:33.00
Nate Peterson Grand Blanc -8.80 17:21.20 17:30.00
Austin Langlanais Mattawan -18.70 17:21.30 17:40.00
Shayden Fisher Grandville -24.40 17:21.60 17:46.00
Alex Eby Carleton Airport +13.60 17:35.60 17:22.00
Madison Troy Grandville -1:12.80 17:22.20 18:35.00
Stetson Miller Celina -24.00 17:23.00 17:47.00
Alex Martinez Bangor -34.80 17:23.20 17:58.00
David McManus Hudsonville -0.60 17:23.40 17:24.00
Perrin Kirwin Walkerville +2.80 17:26.80 17:24.00
Elliott Lipe Bath -25.40 17:24.60 17:50.00
Caleb Eckl Grand Rapids Track Club -1:36.00 17:25.00 19:01.00
Nolan Asiala Mason County Central -13.90 17:25.10 17:39.00
Jack Greenman Battle Creek St. Philip -39.50 17:25.50 18:05.00
Sarah Kettel Capital Homeschool -35.20 17:25.80 18:01.00
Noah Lubben Grandville Calvin Christian -43.50 17:26.50 18:10.00
Daniel Lamontagne St. Clair -33.30 17:26.70 18:00.00
Owen Glass Wayland Union +31.90 18:00.90 17:29.00
Luke Brink Muskegon Western Michigan Christian -57.60 17:29.40 18:27.00
Eric Terhaar Zeeland West -59.50 17:29.50 18:29.00
Brandon Harthorn Cedar Springs -9.40 17:29.60 17:39.00
Nicholas Simonds Battle Creek Pennfield -1:32.30 17:29.70 19:02.00
Cameron Mahlich Ionia -30.90 17:30.10 18:01.00
Brandon Owen Bridgman +1:23.30 18:54.30 17:31.00
Jacob Shoop Mason County Central -1:08.30 17:31.70 18:40.00
Andrew Ashbaugh Remus Chippewa Hills -1:12.20 17:31.80 18:44.00
Ben Hofstra Kentwood Grand River Preparatory -1:09.50 17:32.50 18:42.00
Zach Franks Portage Central -12.50 17:32.50 17:45.00
Grant Bradman Grand Rapids South Christian -1:12.10 17:32.90 18:45.00
Travis Hunt Hudsonville Unity Christian -1:30.30 17:33.70 19:04.00
Palmer Cleaver Kalamazoo Hackett -30.00 17:34.00 18:04.00
Micah Penhallegon Milan -18.70 17:34.30 17:53.00
Joseph Hatch Ludington -0.60 17:34.40 17:35.00
John Siegert Ludington -1:12.20 17:34.80 18:47.00
Owen Webb Hillsdale -46.10 17:34.90 18:21.00
Andrew Joslin Shepherd +42.80 18:17.80 17:35.00
John Cramer Kalamazoo Christian -1:42.90 17:35.10 19:18.00
Tyler Sheehy Walkerville -2:16.80 17:35.20 19:52.00
Jake Schmitt Richland Gull Lake -33.40 17:35.60 18:09.00
Case Trevino Bath +2:57.90 20:33.90 17:36.00
Mike Stinchcomb Portage Northern -57.90 17:36.10 18:34.00
Cole Verrett Bear Lake -54.00 17:37.00 18:31.00
Ethan Nagel Hopkins -13.90 17:37.10 17:51.00
Coby Moore Bay City Western -40.30 17:37.70 18:18.00
Tristin Ward Ionia -39.00 17:38.00 18:17.00
Josh Bostwick Brighton +13.90 17:51.90 17:38.00
Alex Beauchamp Hastings -36.40 17:38.60 18:15.00
Andrew Putlock Ann Arbor Gabriel Richard -40.20 17:38.80 18:19.00
Mathew Koenig Bay City Western -35.60 17:39.40 18:15.00
Cian Johnson Kalamazoo Central -24.40 17:39.60 18:04.00
Kenny Stalzer Mason -1:48.90 17:40.10 19:29.00
Grant Reene Frankenmuth -33.00 17:41.00 18:14.00
Preston Mills Holland Black River -32.00 17:41.00 18:13.00
Jason Klaasen Hudsonville Unity Christian -5:09.90 17:41.10 22:51.00
Ryan Vanappledorn Holland Christian -30.90 17:41.10 18:12.00
Zach Yarger Potterville -1:03.80 17:41.20 18:45.00
Tyler Vermillion Potterville -41.30 17:41.70 18:23.00
Caleb Birsall Howard City Tri County -1:03.70 17:43.30 18:47.00
Cameron Kyser Spring Lake -24.50 17:43.50 18:08.00
Nate Shay Dexter -2.40 17:43.60 17:46.00
Trenton Dalm Ludington -27.00 17:44.00 18:11.00
Gannon Carr Grant -1:08.70 17:44.30 18:53.00
Caleb Keyes Brownstown Woodhaven -2.20 17:44.80 17:47.00
Jakob Grubb Grand Rapids Forest Hills Eastern -40.10 17:44.90 18:25.00
Bobby Reid Lansing Catholic +36.50 18:22.50 17:46.00
Will Cadwell South Haven -37.50 17:46.50 18:24.00
Jackson Henning Kalamazoo Central +53.50 18:40.50 17:47.00
Logan Andersen Monroe Jefferson -8.20 17:47.80 17:56.00
Carson Finch Bangor -9.40 17:48.60 17:58.00
Jenkins Zac Monroe +1:10.10 18:59.10 17:49.00
Corey Robinson Whitehall +3.60 17:52.60 17:49.00
Jake VanEss Ionia -1:03.90 17:49.10 18:53.00
Chase Field Clare -3.70 17:50.30 17:54.00
Scotty Baldwin Clare -2:32.60 17:50.40 20:23.00
Ross Schmiedeknecht Potterville -1:13.10 17:50.90 19:04.00
Jerod Meinema Kalamazoo Loy Norrix +48.00 18:39.00 17:51.00
Jake Lorenz North Muskegon -53.70 17:51.30 18:45.00
Collin Gaishin Bridgman -44.30 17:51.70 18:36.00
Joe Negen Spring Lake -10.60 17:52.40 18:03.00
Keaton Crotser Mendon -1:20.50 17:53.50 19:14.00
Stephen McGraw Grandville -48.30 17:53.70 18:42.00
Dylan Miller Portage Northern -59.00 17:54.00 18:53.00
Ethan Aerts Coldwater +6.90 18:00.90 17:54.00
Jacob Weeda Grand Rapids Forest Hills Eastern +1:01.30 18:55.30 17:54.00
Adam Curtis Big Rapids Crossroads Charter +50.60 18:44.60 17:54.00
Jason Gilder Grand Rapids South Christian -19.70 17:54.30 18:14.00
Kayla Windemuller Holland Christian -1:40.60 17:54.40 19:35.00
Sam Putzke Saugatuck +17.60 18:12.60 17:55.00
Sam Warren Constantine -1:21.00 17:55.00 19:16.00
Dontae Edwards Adrian -1:25.10 17:55.90 19:21.00
Mitch Hiller Jenison -1.10 17:55.90 17:57.00
Nolan Troyer Centreville -38.00 17:56.00 18:34.00
Jalen Smith Kalamazoo Central -36.30 17:56.70 18:33.00
Miguel Flores Hartford -21.50 17:57.50 18:19.00
Kenny Wojick Battle Creek St. Philip -1:21.30 17:57.70 19:19.00
Grant Taylor Capital Homeschool -30.20 17:58.80 18:29.00
Matt Karls Ann Arbor Gabriel Richard +3.00 18:02.00 17:59.00
Colin Rypma Grandville Calvin Christian +23.30 18:22.30 17:59.00
Nick Hayward Schoolcraft -20.30 17:59.70 18:20.00
John Vanderwall Byron Center Zion Christian -1:09.30 17:59.70 19:09.00
Benjamin Greiner Bangor -54.00 18:00.00 18:54.00
Brian Wiltse Flint Powers Catholic -1:10.50 18:00.50 19:11.00
Zack Boller Leslie -1:10.40 18:00.60 19:11.00
Mitch Butlevics Grand Rapids Forest Hills Central -1:26.40 18:00.60 19:27.00
Nate Eldridge Three Rivers -26.20 18:00.80 18:27.00
Collin Neilson Hesperia -47.70 18:01.30 18:49.00
Jessica Gockley Traverse City West -1:36.50 18:01.50 19:38.00
Ava Strenge Battle Creek St. Philip -1:41.30 18:01.70 19:43.00
Jacob Walters Shepherd -28.20 18:01.80 18:30.00
Derek Huffman Wayland Union -26.20 18:01.80 18:28.00
Brandon Shepard Delton Kellogg -30.60 18:02.40 18:33.00
Christian Lipka Montague -1:50.60 18:02.40 19:53.00
Ian Fox Flint Powers Catholic -18.00 18:03.00 18:21.00
Michael Heppe Hopkins +1:19.10 19:22.10 18:03.00
Liam Perdue Grand Rapids Catholic Central -18.60 18:03.40 18:22.00
Jacob Lesinski Ludington +1:26.90 19:30.90 18:04.00
Christian Foreman Muskegon Western Michigan Christian -1:32.60 18:04.40 19:37.00
Remington Sawade Cedar Springs -4.60 18:04.40 18:09.00
David Konold Mattawan -43.30 18:04.70 18:48.00
Anna Fischer St. Joseph -1:38.50 18:05.50 19:44.00
Jacob Klimp Vicksburg -1:53.30 18:05.70 19:59.00
Patrick D'Haene DeWitt -20.50 18:06.50 18:27.00
Stosh Tustin Richland Gull Lake -18.00 18:07.00 18:25.00
Isaac Cooper Jackson Lumen Christi +44.40 18:51.40 18:07.00
Zach Feyen Caledonia -0.60 18:07.40 18:08.00
Freddie Burchett Hartford -1:21.70 18:08.30 19:30.00
Logan Eaves Hesperia -2:21.70 18:08.30 20:30.00
Scott Schueneman Stevensville-Lakeshore -1:37.60 18:08.40 19:46.00
Micah Kigar West Michigan Aviation Academy -41.40 18:08.60 18:50.00
Sam Austin Allendale +2.90 18:11.90 18:09.00
Jessi Larson Saline -1:17.00 18:09.00 19:26.00
Devin Whitney Hart -34.10 18:10.90 18:45.00
Jacob Schantz Grand Rapids West Catholic +31.60 18:42.60 18:11.00
David Gormley Blanchard Montabella -53.40 18:12.60 19:06.00
Dominick Tavolacci Watervliet -28.00 18:13.00 18:41.00
Kyle Coulter Bath +40.70 18:53.70 18:13.00
Justus Chupp Centreville -1:54.90 18:13.10 20:08.00
Thomas Gearhart Mattawan -58.50 18:13.50 19:12.00
Greg Olsen Coloma -42.20 18:13.80 18:56.00
Jon Amland Blanchard Montabella -52.00 18:14.00 19:06.00
David Karston Grand Rapids Forest Hills Eastern -35.00 18:15.00 18:50.00
Annie Zimmer Chagrin Falls -33.50 18:15.50 18:49.00
William Ritsema Hudsonville Unity Christian -24.30 18:16.70 18:41.00
Alexa Vanderhoff Portage Northern -1:52.00 18:17.00 20:09.00
Adam Werkema Kentwood Grand River Preparatory -43.60 18:17.40 19:01.00
Sam Hardy North Muskegon -1:24.50 18:17.50 19:42.00
Joel Bucao Blanchard Montabella -2:12.80 18:18.20 20:31.00
Nathan Chatman Galesburg-Augusta -47.70 18:18.30 19:06.00
Jacob Evans Schoolcraft -16.50 18:18.50 18:35.00
Caleb Falcone Eau Claire -3:11.30 18:19.70 21:31.00
Quentin Johnson Grand Rapids Forest Hills Eastern -22.10 18:19.90 18:42.00
Brett Cribley Capital Homeschool -21.00 18:20.00 18:41.00
Shane Gutkowski Frankenmuth +23.50 18:43.50 18:20.00
Evans Brown Kalamazoo Hackett -1:42.80 18:20.20 20:03.00
Cayla Eckenroth Northville -20.50 18:20.50 18:41.00
Marshall Lipe Bath -31.30 18:20.70 18:52.00
Mitch Lange Mason County Central +20.80 18:41.80 18:21.00
Matt Dickerson Schoolcraft -29.20 18:21.80 18:51.00
Matthew Jager Grand Rapids West Catholic -49.00 18:22.00 19:11.00
Nick Dankowski Allendale +12.80 18:34.80 18:22.00
Olivia Theis Lansing Catholic -49.90 18:22.10 19:12.00
Nick Rush Hillsdale Academy -1:00.60 18:22.40 19:23.00
Odessa Britman Parchment -1:15.50 18:22.50 19:38.00
Riley Waterman Schoolcraft +1:05.70 19:28.70 18:23.00
Charlie Beals Capital Homeschool -1:19.80 18:23.20 19:43.00
Jean-Luc Lachance Battle Creek Pennfield -29.50 18:24.50 18:54.00
Adam Schwanzl Kalamazoo Hackett -18.40 18:24.60 18:43.00
Troy Davis Leslie -13.00 18:25.00 18:38.00
Ben Kole Grand Rapids NorthPointe Christian +13.50 18:38.50 18:25.00
Sam Guikema Grand Rapids South Christian -3.70 18:25.30 18:29.00
Bryce Schafer DeWitt -35.30 18:25.70 19:01.00
Micah Mcfarlane Grand Rapids Track Club -1:03.20 18:26.80 19:30.00
Jasmine Harper Clare -2:01.00 18:27.00 20:28.00
Mary Ankenbauer Kalamazoo Hackett -2:21.00 18:27.00 20:48.00
Isaak Biddle Frankenmuth -10.50 18:27.50 18:38.00
Colin Gonia Monroe Jefferson -16.40 18:27.60 18:44.00
Brian Keillor Byron Center +2:36.00 21:04.00 18:28.00
Nate Dugener Muskegon Western Michigan Christian +30.10 18:58.10 18:28.00
Lauren Biggs Ludington -28.00 18:28.00 18:56.00
Ryan Takacs Kalamazoo Hackett -1:39.70 18:28.30 20:08.00
Zack Herman Marlette -1:20.30 18:28.70 19:49.00
Sean Toohey West Michigan Aviation Academy -1.30 18:28.70 18:30.00
Hannah Cummings Saline +3.20 18:32.20 18:29.00
Nick Mathis Remus Chippewa Hills +5.60 18:34.60 18:29.00
Alex Ruter Spring Lake +39.40 19:10.40 18:31.00
John Sargent Grand Rapids Track Club -24.80 18:32.20 18:57.00
Tyler Lovell Cedar Springs -24.70 18:32.30 18:57.00
Evan Boes Mason County Central -30.00 18:33.00 19:03.00
Riley Weaver West Michigan Aviation Academy -24.80 18:33.20 18:58.00
Emma Herrmann Northville -24.20 18:33.80 18:58.00
Grant Fedewa Capital Homeschool -7.10 18:33.90 18:41.00
Charles Surratt Hastings +10.30 18:44.30 18:34.00
Hunter Bower Whitehall -39.70 18:34.30 19:14.00
Michael Vandevusse Mattawan +4.80 18:39.80 18:35.00
Jacob Hartman Leslie +12.20 18:47.20 18:35.00
Christian Halquist Kentwood Grand River Preparatory -1:19.40 18:35.60 19:55.00
Parker Talent Delton Kellogg -1:49.20 18:35.80 20:25.00
Dylan Alexanderson Three Rivers +11.70 18:47.70 18:36.00
Quintin Lee Leslie -43.50 18:36.50 19:20.00
Tommy Kelley Grant -28.30 18:36.70 19:05.00
Natane Deruytter Chagrin Falls -1:29.30 18:36.70 20:06.00
Jenna Magness Grand Ledge -33.20 18:38.80 19:12.00
Olivia Schroder Caledonia -23.10 18:38.90 19:02.00
Nick Wirpio Grass Lake -1:06.30 18:39.70 19:46.00
Ryan Cain Kalamazoo Homeschool -2:05.80 18:44.20 20:50.00
Andrea Jagielski Hillsdale Academy -54.70 18:44.30 19:39.00
James Phelps Lawton -27.50 18:44.50 19:12.00
James Wubben Hopkins -1:18.90 18:45.10 20:04.00
Kaitlin Newton St. Joseph -29.80 18:45.20 19:15.00
Pete Alfaro Milan -1:06.90 18:46.10 19:53.00
Rafael Lopez Eau Claire -28.40 18:46.60 19:15.00
Charles Goole Lawton +17.90 19:04.90 18:47.00
Ryan Wunderly Kalamazoo Christian +11.50 18:58.50 18:47.00
Jacob Bol Holland Christian -11.90 18:47.10 18:59.00
Kyle Evans DeWitt +22.10 19:10.10 18:48.00
Michael Peterson Adrian -30.30 18:48.70 19:19.00
Evan Ream Cedar Springs -2:46.90 18:49.10 21:36.00
Edward Delong South Haven -1:36.80 18:49.20 20:26.00
Megan Schenkel Grand Rapids Christian -26.20 18:50.80 19:17.00
Amytess Girgis Grand Rapids Forest Hills Central -48.50 18:51.50 19:40.00
Ben Kentzsch Grand Ledge -1:22.40 18:51.60 20:14.00
Rebecca Vanderkooi Grand Rapids South Christian -1:04.30 18:51.70 19:56.00
Andrew Jackson Delton Kellogg -43.20 18:51.80 19:35.00
Jesus Amado Ann Arbor Gabriel Richard +7.40 18:59.40 18:52.00
Seth Ferguson Marlette -54.70 18:52.30 19:47.00
Linus Guerra Kentwood Grand River Preparatory -54.40 18:52.60 19:47.00
Alec Weaver Constantine -1:04.30 18:52.70 19:57.00
Maya Hector Whitehall -21.20 18:53.80 19:15.00
Zachary Fenwick Vicksburg +6.90 19:00.90 18:54.00
Austin Ebrecht Coloma -18.60 18:55.40 19:14.00
Gillian Walter Saline +22.90 19:18.90 18:56.00
Samantha Saenz Concord -58.30 18:56.70 19:55.00
Kensington Garvey Blanchard Montabella -1:57.00 18:57.00 20:54.00
Andrew Plaiser Muskegon Western Michigan Christian +0.90 18:58.90 18:58.00
Kaleb Berry Stevensville-Lakeshore -48.20 18:59.80 19:48.00
Cameron Deel Mendon -17.00 19:00.00 19:17.00
Julia Vanitvelt Flint Powers Catholic -1:27.10 19:00.90 20:28.00
Tyrus Zenner Kingsley -3.50 19:01.50 19:05.00
Braxton Platt Hart +40.80 19:42.80 19:02.00
Haley Hoogenraad Zeeland West +41.90 19:46.90 19:05.00
Emma Smith Northville -58.50 19:08.50 20:07.00
Kate O'connell East Grand Rapids -53.20 19:09.80 20:03.00
Larissa Medich Rockford -20.30 19:10.70 19:31.00
Layna Steele Vicksburg +54.80 20:05.80 19:11.00
Tj Krawczyk Kalamazoo Hackett +18.30 19:29.30 19:11.00
Reese Sample Coloma -36.60 19:11.40 19:48.00
Logan Thomas Byron Center -19.30 19:12.70 19:32.00
Claire Brouwer Grand Rapids Christian -2.10 19:12.90 19:15.00
Joshua Lee Kent City -1:24.00 19:13.00 20:37.00
Miranda Banks Carleton Airport -34.90 19:13.10 19:48.00
Alyssa Sanchez Hudsonville -21.90 19:13.10 19:35.00
Elisabeth LaPrad Monroe +15.40 19:29.40 19:14.00
Lily Fell Richland Gull Lake +26.20 19:40.20 19:14.00
Sarah VanDyke Grand Rapids Christian +19.40 19:33.40 19:14.00
Noah Beegle Constantine +23.90 19:37.90 19:14.00
Maggie Farrell Battle Creek Lakeview -32.10 19:14.90 19:47.00
Riley Rutherford Battle Creek St. Philip -52.40 19:15.60 20:08.00
Gabrielle Morton St. Clair +0.80 19:16.80 19:16.00
Claire McNally Ann Arbor Gabriel Richard -1:09.60 19:16.40 20:26.00
Ally Stapleton Grand Rapids Forest Hills Central -1:13.30 19:16.70 20:30.00
Stephanie Schaub Benzie Central -13.70 19:17.30 19:31.00
Sally Hansma Jenison -1:30.50 19:17.50 20:48.00
Christian Turner Traverse City Grand Traverse Academy +40.50 19:58.50 19:18.00
Autumn Lewis Carleton Airport -1:08.90 19:18.10 20:27.00
Alex Richmond Grand Rapids West Catholic -18.70 19:18.30 19:37.00
Anna Laffrey East Grand Rapids -1:03.60 19:18.40 20:22.00
Laurenr Hackett Holly -22.50 19:19.50 19:42.00
Cale Gray Charyl Stockwell Academy -3.40 19:19.60 19:23.00
Haley Dack Leslie -12.40 19:21.60 19:34.00
Kelli Smith Grand Rapids NorthPointe Christian -1:26.30 19:21.70 20:48.00
Lauren McDonough Celina -2:50.10 19:21.90 22:12.00
Dane Grimes Adrian +16.20 19:38.20 19:22.00
Taylor Ganger Linden -58.40 19:22.60 20:21.00
Caleb Killinger Charyl Stockwell Academy -1:14.60 19:23.40 20:38.00
Michelle Moraitis Hartland -24.20 19:23.80 19:48.00
Ross Hunter Centreville -36.80 19:24.20 20:01.00
Annika Shoemaker Capital Homeschool -38.70 19:24.30 20:03.00
Nick Swanson Watervliet -43.30 19:24.70 20:08.00
Laura Estrada Bay City Western -9.10 19:24.90 19:34.00
Nick Belka Hopkins -1:11.70 19:25.30 20:37.00
Katie Vitou DeWitt -8.20 19:25.80 19:34.00
Paisley Sipes Saugatuck +1.90 19:27.90 19:26.00
Vanessa Veersma St. Joseph +1:02.90 20:29.90 19:27.00
Kateri Mills Grand Rapids West Catholic +31.40 19:58.40 19:27.00
Brad Wynalda Grand Rapids NorthPointe Christian +22.00 19:49.00 19:27.00
Logan Glastetter Flint Powers Catholic +1:54.30 21:24.30 19:30.00
Ben Marsh Jonesville -47.70 19:30.30 20:18.00
Max Glynn Decatur -1:04.70 19:30.30 20:35.00
Brendan Short Adrian -16.20 19:30.80 19:47.00
Hannah Kenny Grand Haven -43.00 19:32.00 20:15.00
Benjamin Osbourne Howard City Tri County +23.30 19:56.30 19:33.00
Jeffrey Bos North Muskegon +32.80 20:05.80 19:33.00
Landen Merren Wayland Union +13.80 19:47.80 19:34.00
Emily Deline Carleton Airport -2:44.00 19:34.00 22:18.00
Haley Weesies Grandville Calvin Christian -1:50.70 19:34.30 21:25.00
Maria Purcell Flint Powers Catholic -1:00.70 19:34.30 20:35.00
Caleb Dagalow Jonesville -1:01.50 19:34.50 20:36.00
Kelsie Bies Kingsley +2:30.80 22:05.80 19:35.00
Michelle Koetje Grand Rapids Christian +37.70 20:13.70 19:36.00
Claudia Baryo Grand Ledge -1:45.90 19:36.10 21:22.00
Katelyn Hutchinson Shepherd +37.50 20:14.50 19:37.00
Connor Durow North Muskegon -2.70 19:37.30 19:40.00
Kayce Rypma Grandville Calvin Christian -1:12.60 19:37.40 20:50.00
Casey Noack Stevensville-Lakeshore -1:19.10 19:37.90 20:57.00
Morgan Markel St. Clair -1:12.90 19:38.10 20:51.00
Hannah Todd Remus Chippewa Hills -38.70 19:39.30 20:18.00
Abigail Tschetter St. Joseph -17.50 19:39.50 19:57.00
Rebecca Estep Bay City Western -15.10 19:39.90 19:55.00
Michael Burris Parchment -5:26.40 19:40.60 25:07.00
Audrey Boersen Grand Haven -12.30 19:40.70 19:53.00
Sydney Del Valle Holland Black River -27.10 19:40.90 20:08.00
Avley Hentschel Whitehall +1:39.70 21:20.70 19:41.00
Rachel Gohn Allendale -36.20 19:41.80 20:18.00
Jack Jones Constantine -1:08.00 19:42.00 20:50.00
Jenna Bishop Grand Rapids Christian -1.90 19:42.10 19:44.00
Meredith Borst Grand Rapids Christian +9.30 19:52.30 19:43.00
Noah Jarrard Grand Ledge +1:28.30 21:11.30 19:43.00
Rachel Chambers Hartford -1:21.10 19:43.90 21:05.00
Nora Mitteer Whitehall -1:13.60 19:44.40 20:58.00
Alex Leach Frankenmuth -54.50 19:44.50 20:39.00
Amber Mango Allendale +36.30 20:21.30 19:45.00
Logann Haluszka Battle Creek Lakeview +57.90 20:43.90 19:46.00
John Stehouwer Kalamazoo Christian +32.40 20:18.40 19:46.00
Tyler Schultz Grass Lake -2:25.70 19:46.30 22:12.00
Morgan Benoit Rockford +28.80 20:15.80 19:47.00
Rachel Vanboxtel Grand Rapids Forest Hills Eastern -48.50 19:47.50 20:36.00
Emma Dempsey Adrian -48.40 19:47.60 20:36.00
Isaac Nausadis Newaygo -3.60 19:48.40 19:52.00
Jared Pendowski Mattawan +1:01.70 20:50.70 19:49.00
James Hofstra Creative Technical Academy -25.90 19:49.10 20:15.00
Charlotte Etienne East Grand Rapids -26.50 19:49.50 20:16.00
Ander Rottschaefer Grand Rapids Track Club -43.40 19:49.60 20:33.00
Josephine Fiore Kalamazoo Loy Norrix +1:09.80 20:59.80 19:50.00
Katya Bohatch Grand Rapids Forest Hills Northern -5.50 19:50.50 19:56.00
Katherine Weinbrecht Hastings +1:21.60 21:12.60 19:51.00
Kylie Hutchinson Shepherd -1:17.80 19:51.20 21:09.00
Jax Heil Parchment -1:20.40 19:51.60 21:12.00
Maddie McCahill East Grand Rapids +38.00 20:30.00 19:52.00
Rachel Zimmer Northville -54.90 19:52.10 20:47.00
Jordan Holscher Linden -6.60 19:52.40 19:59.00
Riley Zick Adrian -48.30 19:52.70 20:41.00
Danielle Waidley Dexter -8.10 19:53.90 20:02.00
Aubrey Hemstreet Portage Central -43.10 19:53.90 20:37.00
Chelsea Miskelley Holland Black River -1:08.70 19:55.30 21:04.00
Mary Claire Smeltzer Benzie Central -1:13.10 19:55.90 21:09.00
Clay Sidenbender Edwardsburg -2:00.80 19:56.20 21:57.00
Faith Kiprotich East Kentwood -46.50 19:56.50 20:43.00
Hailey Lowe Chagrin Falls -56.20 19:56.80 20:53.00
Jensen Mceldowney Jackson Lumen Christi +22.70 20:19.70 19:57.00
Rachel Wiltse Leslie -1:40.10 19:57.90 21:38.00
Emma Pinchak East Kentwood -1:20.40 19:58.60 21:19.00
Mackenzie Kribbet West Michigan Aviation Academy -1:49.20 19:58.80 21:48.00
Amanda Montgomery Grand Rapids South Christian -9.10 19:58.90 20:08.00
Clayton Conner Hopkins +57.60 20:56.60 19:59.00
Zach Troxell Mason -1:18.00 19:59.00 21:17.00
Dana Bodary Ann Arbor Gabriel Richard -1:29.50 19:59.50 21:29.00
Aiden Graeff Grand Rapids NorthPointe Christian -3:10.30 19:59.70 23:10.00
Shannon Mcdonnell Jackson Lumen Christi -2:04.70 20:00.30 22:05.00
Emily Merten Walkerville -7.10 20:00.90 20:08.00
Zach Lemmen Montague +1:46.20 21:47.20 20:01.00
Anna Vanhill Okemos -1:21.70 20:01.30 21:23.00
Carissa Schurr Frankenmuth -2:17.90 20:02.10 22:20.00
Grace Frost Lansing Catholic -51.10 20:02.90 20:54.00
Natalie Purcell Flint Powers Catholic +19.30 20:23.30 20:04.00
Nash Bennet Mason -16.30 20:04.70 20:21.00
Sophie Kaminski Grandville -1:32.10 20:04.90 21:37.00
Roma Lucarelli Temperance-Bedford +36.20 20:41.20 20:05.00
Dalton Mauchmer Battle Creek Pennfield -4:11.70 20:05.30 24:17.00
Eric Belt Lawton -2:18.00 20:06.00 22:24.00
Annemarie Maher Grand Ledge -24.70 20:06.30 20:31.00
Alexa Davis Kalamazoo Loy Norrix -1:11.40 20:06.60 21:18.00
Alyssa Schwartz Grand Rapids South Christian +6.20 20:13.20 20:07.00
Lauryn Thompson Kalamazoo Hackett +1:03.70 21:10.70 20:07.00
Eliza Lowe Grand Haven -28.40 20:07.60 20:36.00
Jacob Andrina Edwardsburg -46.10 20:08.90 20:55.00
Alicia Medrano Adrian +27.00 20:36.00 20:09.00
Austin Boundy Hart +36.10 20:46.10 20:10.00
Olivia Brian Benzie Central -26.00 20:10.00 20:36.00
Rebekah Townsend Whitehall -2:22.10 20:11.90 22:34.00
Emily Hamlin Portage Northern +18.00 20:30.00 20:12.00
Amanda Sorokin Caledonia +50.70 21:02.70 20:12.00
Grace Rumler Ann Arbor Gabriel Richard +45.80 20:57.80 20:12.00
Leta Larsen Mason County Central +7:10.90 27:22.90 20:12.00
Lucy Karpukhno Benzie Central -1:26.30 20:12.70 21:39.00
Kim Buskirk Blanchard Montabella -1:22.20 20:12.80 21:35.00
Kelsey Billingsley Bath -43.00 20:13.00 20:56.00
Riley Sweet Fremont -20.70 20:13.30 20:34.00
Jordan McGinnis Dexter -43.70 20:13.30 20:57.00
Hannah Adler DeWitt -1.40 20:13.60 20:15.00
Isabella Moayer Grandville -37.40 20:14.60 20:52.00
Andrew Slager Parchment -5.40 20:14.60 20:20.00
Hailee Loch Leslie -38.50 20:15.50 20:54.00
Morgan Overweg Zeeland West -1:03.70 20:16.30 21:20.00
Payton Stine Battle Creek Lakeview -1:11.60 20:16.40 21:28.00
Sarah Dedolph Flint Powers Catholic -1:24.40 20:16.60 21:41.00
Genny Soltesz Mattawan -20.10 20:17.90 20:38.00
Madison Cook Newaygo -2:11.80 20:18.20 22:30.00
Megan Heft Hopkins +1:06.90 21:25.90 20:19.00
Quinn Epkey Kalamazoo Hackett -1:14.70 20:19.30 21:34.00
Allison Coipel Grandville Calvin Christian +31.90 20:51.90 20:20.00
Miranda Donahue Delton Kellogg -30.60 20:20.40 20:51.00
Maya Gossett Linden -14.40 20:20.60 20:35.00
Lindsey Hayter Dexter -17.40 20:21.60 20:39.00
Anna Piloske Hanover-Horton -52.10 20:21.90 21:14.00
Daniela Sanchez-Martinez Holland Black River -10.20 20:22.80 20:33.00
Brooke Carrier Spring Lake -22.20 20:22.80 20:45.00
Kendall Cassella Okemos +1:53.50 22:16.50 20:23.00
Allison Frank Hudsonville -52.50 20:23.50 21:16.00
Gabby Brandonisio Concord -34.40 20:23.60 20:58.00
Morgan Burch Benzie Central -34.20 20:23.80 20:58.00
Morgan McCormick Temperance-Bedford -1:07.00 20:25.00 21:32.00
Jessica Quist Hudsonville Unity Christian -1:07.70 20:25.30 21:33.00
Chloe Strach North Muskegon -29.40 20:25.60 20:55.00
Zoey Holdorf Portage Northern +1:43.80 22:09.80 20:26.00
Ashley Nye Benzie Central -1:29.80 20:26.20 21:56.00
Libby Springer Saugatuck -1:01.60 20:26.40 21:28.00
Miranda Pomeroy Hartland -4.40 20:26.60 20:31.00
Hannah Gaffner Hudsonville Unity Christian -56.20 20:26.80 21:23.00
Mitchell Vanoeffelen Kent City -21.50 20:27.50 20:49.00
Kayleigh Collins Hastings -20.30 20:27.70 20:48.00
Grace Kendziorski Bay City Western -20.30 20:27.70 20:48.00
Emma Engle Kalamazoo Homeschool +1.80 20:30.80 20:29.00
Eric Hoeberling Delton Kellogg -14.50 20:29.50 20:44.00
Chloe Wandell Ionia +1:04.50 21:34.50 20:30.00
Sarah Kempa Hillsdale -42.50 20:30.50 21:13.00
Amber Wiederhold Temperance-Bedford +1:05.60 21:37.60 20:32.00
Christina Berna Allendale -1:21.60 20:32.40 21:54.00
Quinten Bortz Battle Creek Pennfield -2:24.20 20:32.80 22:57.00
Catherine Stapleton Grand Rapids Forest Hills Central +1:01.90 21:34.90 20:33.00
Claire Halpin Richland Gull Lake -31.50 20:33.50 21:05.00
Emily Sinclair Grandville -53.00 20:34.00 21:27.00
Callie Delaney Caledonia -29.60 20:35.40 21:05.00
Taylor Coyer Battle Creek Lakeview -58.30 20:35.70 21:34.00
Alex Nuttull Montague -2:22.60 20:36.40 22:59.00
Ethan Stamm Grand Rapids NorthPointe Christian -1:02.50 20:36.50 21:39.00
Cecelia Batterbee Grand Rapids Forest Hills Central -17.10 20:37.90 20:55.00
Gabby Tavolacci Watervliet +39.00 21:17.00 20:38.00
Hannah Matuz Kalamazoo Central -23.20 20:38.80 21:02.00
Laura Vanderploeg Hudsonville -30.70 20:39.30 21:10.00
Victoria Thamann Vicksburg -1:09.10 20:39.90 21:49.00
Rebekka Golisch Grand Ledge +32.30 21:12.30 20:40.00
Alyssa Zettle Bay City Western -1.70 20:40.30 20:42.00
Katelyn Rodriguez Grant -2:16.00 20:41.00 22:57.00
Renee Borchers Grand Haven +28.50 21:09.50 20:41.00
Alyssa Boeve Holland Christian -1.20 20:41.80 20:43.00
Brittany Pierce Leslie -32.70 20:42.30 21:15.00
Jenna Gales Mendon -1:06.60 20:42.40 21:49.00
Nathan McLatcher Kalamazoo Homeschool -14.30 20:42.70 20:57.00
Elizabeth Belinsky Bear Lake -1:07.00 20:43.00 21:50.00
Emily Owen Chagrin Falls +1.60 20:44.60 20:43.00
Reesie Bohatch Grand Rapids Forest Hills Central +44.50 21:27.50 20:43.00
Megan Grimes Delton Kellogg -48.40 20:43.60 21:32.00
Elaina Nibbelink Hudsonville +27.40 21:11.40 20:44.00
Carissa Kelley Three Rivers +27.10 21:11.10 20:44.00
Kara Johnson DeWitt -6.10 20:44.90 20:51.00
Kailyn Mince Caledonia -36.80 20:45.20 21:22.00
Rachel Childs Hanover-Horton -2:19.60 20:45.40 23:05.00
Rudy Joon Saugatuck +36.50 21:22.50 20:46.00
Kaylee Shattuck Ionia -50.80 20:46.20 21:37.00
Sidney Towalski Monroe -8.80 20:46.20 20:55.00
Naomi Billings Ludington -25.60 20:46.40 21:12.00
Anna Lin Okemos -40.50 20:46.50 21:27.00
Phoebe Varney Temperance-Bedford -30.20 20:46.80 21:17.00
Bekah Vanderhelm Allendale +21.40 21:08.40 20:47.00
Rachel Mathers Shepherd +10.10 20:58.10 20:48.00
Hannah Adams Jonesville -1:39.80 20:49.20 22:29.00
Bailey Montgomery Grand Rapids South Christian -3.10 20:49.90 20:53.00
Mackenzie Lurch Chagrin Falls -5.00 20:51.00 20:56.00
Brinley Schenk Zeeland West -1:26.80 20:51.20 22:18.00
Mallori Palmer Grant -1:12.30 20:51.70 22:04.00
Chloee Gamble Van Wert +1:05.30 21:57.30 20:52.00
Alaina Carpenter Grandville +36.10 21:28.10 20:52.00
Sarah Bellinger Shepherd -19.30 20:52.70 21:12.00
Dawson Armstrong Creative Technical Academy -1:27.30 20:52.70 22:20.00
Michaela Donahue Grand Ledge -1:12.20 20:52.80 22:05.00
Candice Baker Grand Rapids South Christian +32.90 21:25.90 20:53.00
Yuki Babinec Bear Lake +27.30 21:20.30 20:53.00
Natalie Riethman Van Wert +39.20 21:33.20 20:54.00
Megan Riegle Battle Creek Lakeview -17.30 20:55.70 21:13.00
Elsie Jorgensen Eau Claire -27.20 20:55.80 21:23.00
Brianna Norris Fremont +12.90 21:09.90 20:57.00
Earl Burris Parchment -1:21.80 20:57.20 22:19.00
Paige O'connor Richland Gull Lake +3:34.50 24:32.50 20:58.00
Richie Tarkowski Traverse City Grand Traverse Academy -56.00 20:59.00 21:55.00
Salvatore Curcuru Charyl Stockwell Academy +3.50 21:03.50 21:00.00
Melissa Schott Bath -56.20 21:00.80 21:57.00
Sarah Mcellis Grass Lake -36.00 21:01.00 21:37.00
Cameron Cleveland Edwardsburg -2:33.00 21:01.00 23:34.00
Sarah Sikkema Richland Gull Lake +2:34.70 23:37.70 21:03.00
Mary Leighton Mendon +18.10 21:21.10 21:03.00
Jermaine Viculis Charyl Stockwell Academy -42.40 21:04.60 21:47.00
Sophie Morin Portage Northern +5.30 21:10.30 21:05.00
Ashley Robinson Celina -18.90 21:05.10 21:24.00
Kaitlyn St. Bernard Monroe Jefferson -1:26.70 21:06.30 22:33.00
Ali Altland Hart -1:15.30 21:06.70 22:22.00
Melina Stone Okemos -48.10 21:06.90 21:55.00
Grace Glagola Ann Arbor Gabriel Richard +34.30 21:41.30 21:07.00
Abbie Smith Edwardsburg -1:45.90 21:08.10 22:54.00
Libby Filice Leslie +27.20 21:36.20 21:09.00
Anna Rentz Lansing Catholic -38.00 21:11.00 21:49.00
Mary Wheeler Bridgman +19.20 21:31.20 21:12.00
Zoie Gossett Hudsonville +1:36.60 22:49.60 21:13.00
Hoban Isabela Grand Rapids Catholic Central +2:07.30 23:20.30 21:13.00
Lauren Baustert Whitehall +6.60 21:20.60 21:14.00
Paige Heckel Zeeland West -59.60 21:14.40 22:14.00
Madison Gutter Grand Rapids Forest Hills Eastern -5:16.20 21:14.80 26:31.00
Callie Jones Mason -1:08.40 21:15.60 22:24.00
Brogan Westra Holland Black River -35.00 21:16.00 21:51.00
Lindy Anderson Milan -49.90 21:16.10 22:06.00
Anna Kahmark Portage Central +2.00 21:19.00 21:17.00
Tara Tepin Cedar Springs +44.80 22:01.80 21:17.00
Ana Swanson Kent City -6.60 21:17.40 21:24.00
Nicole Bowsher Celina +2.60 21:20.60 21:18.00
Hannah Brown Clare -2.70 21:19.30 21:22.00
Mara McFarland Berrien Springs +1:23.50 22:43.50 21:20.00
Lauren Myers Muskegon Western Michigan Christian +1:06.50 22:26.50 21:20.00
Makenzie Harmon Clare -24.70 21:20.30 21:45.00
Jordyn Sanders Mason County Central -29.20 21:20.80 21:50.00
Sophia Camarota Holland Black River -1:55.60 21:21.40 23:17.00
Ella Suliman Grass Lake -37.70 21:22.30 22:00.00
Katie Powell Shepherd +8.60 21:31.60 21:23.00
Josie Ruiter Muskegon Western Michigan Christian +48.60 22:11.60 21:23.00
Morgan Bykerk Grandville Calvin Christian -1:57.90 21:24.10 23:22.00
Katie Mckee Lawton -2:26.60 21:24.40 23:51.00
Clare St. Andre Grand Rapids West Catholic -53.50 21:25.50 22:19.00
Brooke Nash Ludington -1:30.20 21:25.80 22:56.00
Rebecca Kettel Capital Homeschool -38.70 21:26.30 22:05.00
Madison Snoeyink Hopkins -30.40 21:27.60 21:58.00
Lexi Kapla Jenison -36.30 21:29.70 22:06.00
Hannah Sperry Hesperia +7.10 21:37.10 21:30.00
Meagan Casterline Battle Creek St. Philip -1:38.20 21:30.80 23:09.00
Katy Ferris Fremont +17.20 21:49.20 21:32.00
Penny Petersen Mason County Central +47.50 22:19.50 21:32.00
Erin Hacker Bay City Western -5.60 21:32.40 21:38.00
Lynden Hamstra Jenison +26.80 21:59.80 21:33.00
Calob Besaw Edwardsburg +11.70 21:45.70 21:34.00
Sidney Mason Monroe Jefferson -12.90 21:34.10 21:47.00
Kiersten Reeves Ionia -2.80 21:34.20 21:37.00
Joelle Humpula Remus Chippewa Hills -3:55.20 21:34.80 25:30.00
Tessa Vandewalker Holland Christian +9.40 21:45.40 21:36.00
Brittney Johnson Watervliet +1:01.90 22:37.90 21:36.00
Jorge Evans Wyoming Lee -6.00 21:38.00 21:44.00
Evie Misiak Byron Center +1:37.00 23:16.00 21:39.00
Autumn Green Monroe -15.40 21:39.60 21:55.00
Hope Waidley Grass Lake +1.40 21:41.40 21:40.00
Jacquelyn Frazier Stevensville-Lakeshore -39.70 21:40.30 22:20.00
Taylor Watson Battle Creek Lakeview -2.40 21:41.60 21:44.00
Hannah Wickman Hartland -30.00 21:42.00 22:12.00
Ryan Kik Kent City -50.80 21:42.20 22:33.00
Ashley Brzozowski DeWitt -37.80 21:42.20 22:20.00
Isabella Vruwink Hudsonville Unity Christian -38.00 21:43.00 22:21.00
Lauren Allard Grand Rapids Forest Hills Eastern +23.10 22:06.10 21:43.00
Ella Signs Bath -27.90 21:43.10 22:11.00
Yadira Rodriguez Bangor -1:29.40 21:43.60 23:13.00
Abbie Moccio Milan -1:45.00 21:44.00 23:29.00
Andrew Romig Marcellus -28.20 21:44.80 22:13.00
Faith Brown Bath +33.00 22:18.00 21:45.00
Shaun Marie Banaszak Grand Rapids Catholic Central +11.50 21:57.50 21:46.00
Ellie Nausadis Newaygo -1:14.90 21:46.10 23:01.00
Ally Marvel Cedar Springs +12.60 21:59.60 21:47.00
Tayah Schuette Hanover-Horton +44.00 22:31.00 21:47.00
Johnathon Letourneau Creative Technical Academy -6:32.70 21:47.30 28:20.00
Paige Gould Clare -2:25.50 21:47.50 24:13.00
Brooke Hodges Hart +33.70 22:23.70 21:50.00
Kylee Marcussen Potterville +10.20 22:00.20 21:50.00
Emily Isenhoff Wayland Union -41.50 21:51.50 22:33.00
Carolyn Kirchner Three Rivers -10.30 21:51.70 22:02.00
Hanna Flickinger Vicksburg +2:21.40 24:13.40 21:52.00
Hannah Pifer Monroe Jefferson +26.50 22:19.50 21:53.00
Katlyn DeWitt Holland Christian -3.80 21:53.20 21:57.00
Autumn Gentner Frankenmuth -18.90 21:54.10 22:13.00
Megan Poole Hillsdale Academy -29.30 21:54.70 22:24.00
Taryn Kilbane Hopkins +3.80 21:58.80 21:55.00
Saskia Praamsma Holland Christian +14.00 22:10.00 21:56.00
Elena Harrand Kingsley -8.80 21:56.20 22:05.00
Noelle Kraus Edwardsburg -12.60 21:56.40 22:09.00
Margaret VanWylen Holland Christian +2:35.40 24:32.40 21:57.00
Riley Raburn Jackson Lumen Christi +8.90 22:05.90 21:57.00
Emma Brink Muskegon Western Michigan Christian +40.90 22:38.90 21:58.00
Olivia VandePol Kalamazoo Loy Norrix -47.40 21:58.60 22:46.00
Catherine Hasted South Haven +8.70 22:07.70 21:59.00
Vanessa Hernandez Adrian -13.70 21:59.30 22:13.00
Sarah MacLachlan Grand Rapids Catholic Central +35.40 22:35.40 22:00.00
Riley Shepherd Wayland Union +53.70 22:53.70 22:00.00
Caity Swanson Kent City +3:02.00 25:02.00 22:00.00
Sydnie Avery Saugatuck +9.40 22:09.40 22:00.00
Julia Holman Marlette -1:49.00 22:01.00 23:50.00
Corrine Stevens Fremont -2:04.70 22:01.30 24:06.00
Maria Przebienda Ann Arbor Gabriel Richard -3.40 22:01.60 22:05.00
Maria Cotts Byron Center -54.70 22:02.30 22:57.00
Corinne Nedeau North Muskegon -1:01.70 22:06.30 23:08.00
Chanaiya Richards Muskegon Western Michigan Christian -4:37.20 22:06.80 26:44.00
Katelyn Trevino Bath +57.90 23:04.90 22:07.00
Karyssa Gallegos Bangor -1:24.80 22:08.20 23:33.00
Therese Thamann Vicksburg -1:55.10 22:08.90 24:04.00
Melody Perrin Fremont +8.30 22:17.30 22:09.00
Lydia Bekius Zeeland West +3.40 22:12.40 22:09.00
Shelby Ebrecht Coloma +1:51.00 24:01.00 22:10.00
Amber Weers New Buffalo -7:46.90 22:12.10 29:59.00
Asia Patterson Ludington +19.70 22:32.70 22:13.00
Maggie Whitney Wayland Union +25.40 22:39.40 22:14.00
Emma Boven Hudsonville Unity Christian -15.40 22:15.60 22:31.00
Hannah Fiorillo Remus Chippewa Hills +32.40 22:48.40 22:16.00
Emily O'leary Traverse City West +4.60 22:21.60 22:17.00
Samantha Myers Hopkins -10.00 22:19.00 22:29.00
Stefanie Haenicke Mattawan +24.70 22:45.70 22:21.00
Madison Bank Carleton Airport +16.70 22:37.70 22:21.00
Alanna Schiavone Hartland +1:17.80 23:39.80 22:22.00
Michelle Jonik Ann Arbor Gabriel Richard +4.60 22:26.60 22:22.00
Katelynn Welch Lawton +2:07.70 24:30.70 22:23.00
Grainne Caughey Flint Powers Catholic +1:17.00 23:41.00 22:24.00
Joslyn Fox Grand Rapids Catholic Central +17.40 22:41.40 22:24.00
Elly Rudolph Grand Rapids NorthPointe Christian +25.80 22:51.80 22:26.00
Renee Miller Marlette -50.80 22:26.20 23:17.00
Shayla Pham East Kentwood -39.80 22:27.20 23:07.00
Mickala Kohtz Wayland Union +39.00 23:07.00 22:28.00
Jessie Sullivan Bath +2:11.40 24:39.40 22:28.00
Carli Bredice Bridgman -26.30 22:29.70 22:56.00
Renee Debault Vicksburg +4.30 22:34.30 22:30.00
Piper Harris Saugatuck -27.30 22:30.70 22:58.00
Rebecca Sizemore Kent City +38.80 23:09.80 22:31.00
Kasmyn Vanmaanen Vicksburg -2:35.60 22:31.40 25:07.00
Katlin Kunde Bridgman -8.20 22:34.80 22:43.00
Alex Morales Hartford -15.70 22:36.30 22:52.00
Martha Casiano Watervliet +20.30 23:00.30 22:40.00
Veronica Bell Decatur +5.00 22:46.00 22:41.00
Nikki Shenker Stevensville-Lakeshore -58.10 22:41.90 23:40.00
Madison Mcphee Clare +1:18.00 24:01.00 22:43.00
Brynn Lobert Blanchard Montabella -0.70 22:44.30 22:45.00
Aianna Smith Hillsdale Academy -55.60 22:44.40 23:40.00
Cole Danielle Delton Kellogg -1:58.10 22:44.90 24:43.00
Katelyn Sparzynski Holly +3.80 22:48.80 22:45.00
Rain Barnes Three Rivers +2:13.10 24:59.10 22:46.00
Lexi Wilhelmsen Marlette +1:03.00 23:53.00 22:50.00
Mackenzie Walter Frankenmuth +1:19.10 24:12.10 22:53.00
Jena Gaffner Hudsonville Unity Christian -2:25.00 22:53.00 25:18.00
Katie Lemmen Montague -42.90 22:53.10 23:36.00
Morgan McClure Stevensville-Lakeshore -38.70 22:53.30 23:32.00
Clare Anderson Grand Rapids West Catholic -1:07.60 22:53.40 24:01.00
Kylie Beaudoin Grand Rapids West Catholic -12.50 22:53.50 23:06.00
Erin Krause Kalamazoo Central -17.50 22:53.50 23:11.00
Emily Pattok Hastings +44.50 23:38.50 22:54.00
Mary Racette Milan -46.50 22:54.50 23:41.00
Macayla Rhoda Schoolcraft -2.40 22:54.60 22:57.00
Brooke Schooley Hesperia -1:06.90 22:56.10 24:03.00
Leticia Nemetz Blanchard Montabella -1:18.30 22:56.70 24:15.00
Hannah Bornamann Mattawan +3:08.00 26:06.00 22:58.00
Emily Schaub Marlette +4.50 23:03.50 22:59.00
Sarah Sizemore Kent City +22.50 23:21.50 22:59.00
Clare Lycan Lawton -11.00 23:01.00 23:12.00
Jocelyn Berry Adrian +1:21.90 24:22.90 23:01.00
Alissa Waite Lawton -33.20 23:01.80 23:35.00
Jack Webster North Muskegon -13.90 23:05.10 23:19.00
Melissa Swanson Watervliet -9.50 23:05.50 23:15.00
Jennifer Jager Grand Rapids West Catholic +37.70 23:44.70 23:07.00
Milagro Guerra Kentwood Grand River Preparatory +1:03.40 24:11.40 23:08.00
Kylie Ostrofsky Frankenmuth -2:30.60 23:08.40 25:39.00
Violet Shippert Kentwood Grand River Preparatory -53.30 23:10.70 24:04.00
Kaitlin Rich Kent City +14.90 23:26.90 23:12.00
Brenden Ludlow Marcellus +12.20 23:27.20 23:15.00
Gwen Wagner Marcellus -2:55.50 23:15.50 26:11.00
Meselch Beld Hudsonville Unity Christian -46.10 23:17.90 24:04.00
Emma Woodhams Schoolcraft +1:59.30 25:18.30 23:19.00
Jessica Sherwood Grass Lake -20.80 23:19.20 23:40.00
Bailey Evans Watervliet +9.90 23:29.90 23:20.00
Sandra Cesco Concord +19.30 23:39.30 23:20.00
Kassidy Baum Hart +1:10.90 24:31.90 23:21.00
Emily Silva Kentwood Grand River Preparatory +1:15.90 24:38.90 23:23.00
Julianna Goodall South Haven +14.80 23:39.80 23:25.00
Grace Bogart Kingsley +22.10 23:48.10 23:26.00
Brianna Breithaupt Kingsley +9.60 23:35.60 23:26.00
Kate Kavanaugh Kalamazoo Homeschool +28.50 23:54.50 23:26.00
Alyvia Karcher Blanchard Montabella -1:35.00 23:26.00 25:01.00
Dana Williams Frankenmuth +1:37.40 25:06.40 23:29.00
Rachel Bosley Howard City Tri County -5.20 23:30.80 23:36.00
Maggie Mcveigh St. Clair -31.50 23:31.50 24:03.00
Alyssa Burns Kalamazoo Homeschool -11.30 23:31.70 23:43.00
Michelle Shepardson Wyoming Lee -2.10 23:36.90 23:39.00
Alyssa Speelman Three Rivers +45.50 24:23.50 23:38.00
Kristen Miller Hillsdale Academy +1:14.50 24:53.50 23:39.00
Michelle Alt Kent City -6.90 23:42.10 23:49.00
Julia Sutter Mendon -39.20 23:42.80 24:22.00
Olivia Brewer Berrien Springs -2:50.40 23:44.60 26:35.00
Alecia Heaton Grant -1:23.50 23:46.50 25:10.00
Allena Mulville Mason -2:10.90 23:51.10 26:02.00
Torey Fisher Battle Creek Pennfield -1:41.20 23:52.80 25:34.00
Tristan Hanners Hartford -1:31.00 23:56.00 25:27.00
Erin Berni Bridgman -3:01.60 23:56.40 26:58.00
Shaylee Smith Battle Creek Pennfield -7:04.80 24:05.20 31:10.00
Evelyn Pelfrey Kalamazoo Homeschool -1:03.60 24:09.40 25:13.00
Elena VanLoo Kalamazoo Christian -1:07.40 24:12.60 25:20.00
Deane Shapley Mendon +20.70 24:34.70 24:14.00
Elizabeth Hasted South Haven +54.70 25:14.70 24:20.00
Jamie Barrett Three Rivers +32.50 24:54.50 24:22.00
Allison Lewis Edwardsburg +52.60 25:18.60 24:26.00
Lindsey Hawthorne Battle Creek Pennfield -2:05.10 24:29.90 26:35.00
Emily Cihonski Charyl Stockwell Academy -27.50 24:30.50 24:58.00
Kristen Vanpelt New Buffalo -19.50 24:34.50 24:54.00
Katie Donley Big Rapids Crossroads Charter -57.40 24:39.60 25:37.00
Marissa Polindar Grand Rapids Track Club -3:27.90 24:44.10 28:12.00
Taylor Schmidt Mendon -1:44.40 24:49.60 26:34.00
Claire Harris Hastings +1.30 24:53.30 24:52.00
Anna Elliott Delton Kellogg -25.10 24:57.90 25:23.00
Anna Orr Grand Rapids NorthPointe Christian +24.20 25:24.20 25:00.00
Hailey Lemmen Montague +33.80 25:35.80 25:02.00
Emily Robbins Lawton -19.30 25:04.70 25:24.00
Darby Vanavery Hesperia -1:55.20 25:06.80 27:02.00
Christiana Heikoop Grand Rapids Track Club +23.10 25:39.10 25:16.00
Aariyanna Koernke Kingsley +12.20 25:33.20 25:21.00
Angeline Kerkstra West Michigan Aviation Academy -2:39.90 25:27.10 28:07.00
Morgan Walton Centreville +59.50 26:28.50 25:29.00
Morgan Ludlow Marcellus -3:13.00 25:34.00 28:47.00
Julia Miklusicak Battle Creek Pennfield -2:25.10 25:34.90 28:00.00
Jodi Lemmen Montague -1:00.90 25:35.10 26:36.00
Lydia Dykema West Michigan Aviation Academy -4.40 25:36.60 25:41.00
Leah Pearl South Haven +15.20 25:54.20 25:39.00
Joaynna Cook Charyl Stockwell Academy -3.70 25:41.30 25:45.00
BryAnne Haas Marcellus -57.40 25:58.60 26:56.00
Nina Gropp New Buffalo -54.10 26:00.90 26:55.00
Carly Delor St. Clair -2:08.70 26:02.30 28:11.00
Elizabeth Jorgenson Eau Claire +1:47.70 28:00.70 26:13.00
Emily Keller New Buffalo -2:15.20 26:24.80 28:40.00
Hana Bradbury New Buffalo -2:07.10 26:33.90 28:41.00
Arielle Haefner Marcellus +20.30 27:04.30 26:44.00
Makayla Dulaney Kentwood Grand River Preparatory +2:22.40 29:09.40 26:47.00
Katie Chitwood St. Clair +51.30 27:40.30 26:49.00
Tarah Gates Potterville -1:01.60 27:08.40 28:10.00
Lillian Wilkie-jones North Muskegon -3:28.70 27:13.30 30:42.00
Jessie Smith Milan +4:35.10 33:11.10 28:36.00
Alana Tovar-pineda Newaygo +37.80 29:14.80 28:37.00
Miranda Russo Grant -3:46.90 34:01.10 37:48.00